DMSP 5D-2 F13 DEB, 42315

Orbit data source: Space-Track

DMSP 5D-2 F13 DEB, 42315 is space debris in SSO originally from a launch on Fri, 24 Mar 1995 UTC launched from the Air Force Western Test Range (AFWTR). Debris objects in space refer to the collection of defunct objects orbiting the Earth. Examples of debris include non-operational satellites, rocket bodies, and fragments generated from explosions, collisions, or faulty payload assembly.

Loading next visibility...
Identifier
42315, 1995-015JH
Orbit
SSO
Country
Flag of USUS
Related business
Manufacturer
Unknown
Mission
Spacecraft
Bus & Motor
Unknown
Mass
Unknown
Launch date (UTC)
1995-03-24 (31 years ago)
Launch vehicle
Unknown
Launch site
Air Force Western Test Range (AFWTR)
Object type
Payload
Rocket body
Debris
Shape & HBR
Unknown shape, 0.1 m
Radar Cross Section
Small (<0.1 m²)

Expand to show TLE details & history
Last TLE update: 14 hours ago

TLE from 14 hours ago
0 DMSP 5D-2 F13 DEB
1 42315U 95015JH  26095.09524390  .00009192  00000-0  22575-2 0  9993
2 42315  98.5550 153.2123 0022537  42.8739 317.4208 14.52404290557258
Epoch: 2026-04-05T02:17Z
TLE epoch observation values (Epoch: 2026-04-05T02:17:09.072Z)
Latitude
-0.00005°
Longitude
-74.48108°
Altitude
709.009 km
Speed
7.507 km/s
True Right ascension
10h 12m 50s
True Declination
0° 00' 00"
Sunlit
Object was in full shadow at epoch
Visualization orbit readout
Latitude
Unknown
Longitude
Unknown
Altitude
Unknown
Speed
Unknown
Apparent Right ascension
Unknown
Apparent Declination
Unknown
Sunlit
N/A
Visualization observer readout
Local Sidereal Time
22:24:28
Azimuth
Unknown
Elevation
Unknown
Doppler factor
Unknown
Orbital elements
Apogee altitude
730.9 km
Perigee altitude
698.929 km
Semi-major axis
7,093.052 km
Eccentricity
0.00225
Inclination
98.555°
RAAN
153.2123°
Arg. of periapsis
42.8739°
True anomaly
317.2457°
Mean anomaly
317.4208°
Eccentric anomaly
317.33329°
Mean motion
3.63324 °/min
Orbital period
99.09 mins
BSTAR
0.0022575
Loading maneuver chart data...
Computing Atmospheric mass density...
Loading historical data...
Loading historical data...
Loading historical data...
Loading historical data...
Loading historical data...
Loading historical data...
Loading historical data...

Documentation

Showing up to 5 results
|